Total_Precipitation_Accumulation
0.02 0.05 0.23 0.29 0.25 0.24 0.23 0.24 0.24 0.23 0.24 0.27 0.25 0.23 0.24 0.24 0.24 0.24 0.25 0.24 0.24 0.27 0.32 0.38 0.39 0.37 0.35 0.31 0.26 0.26 0.27 0.26 0.24 0.24 0.26 0.29 0.27 0.23 0.21 0.20 0.20 0.21 0.33
0.04 0.06 0.18 0.22 0.21 0.23 0.25 0.26 0.22 0.18 0.20 0.23 0.20 0.18 0.20 0.21 0.22 0.24 0.25 0.26 0.28 0.30 0.31 0.33 0.33 0.33 0.29 0.27 0.25 0.23 0.22 0.20 0.17 0.15 0.13 0.16 0.24 0.27 0.26 0.25 0.23 0.27 0.30
0.03 0.05 0.13 0.18 0.19 0.23 0.25 0.22 0.18 0.15 0.16 0.18 0.16 0.17 0.20 0.18 0.19 0.21 0.22 0.25 0.29 0.34 0.32 0.30 0.30 0.31 0.27 0.25 0.25 0.23 0.22 0.16 0.12 0.11 0.10 0.12 0.23 0.33 0.30 0.28 0.25 0.30 0.30
0.01 0.03 0.08 0.15 0.19 0.22 0.23 0.20 0.17 0.15 0.16 0.16 0.15 0.16 0.18 0.16 0.17 0.17 0.18 0.22 0.28 0.34 0.37 0.36 0.35 0.33 0.27 0.25 0.25 0.23 0.27 0.18 0.10 0.08 0.06 0.10 0.26 0.41 0.38 0.34 0.29 0.30 0.32
0.01 0.02 0.08 0.16 0.20 0.23 0.24 0.21 0.18 0.17 0.17 0.17 0.16 0.16 0.19 0.17 0.16 0.15 0.14 0.16 0.22 0.30 0.35 0.38 0.35 0.32 0.30 0.28 0.24 0.24 0.31 0.24 0.12 0.05 0.04 0.09 0.22 0.42 0.37 0.36 0.32 0.31 0.31
0.02 0.03 0.09 0.16 0.21 0.23 0.24 0.22 0.19 0.18 0.19 0.19 0.19 0.20 0.22 0.20 0.17 0.15 0.13 0.10 0.12 0.18 0.26 0.31 0.30 0.31 0.33 0.28 0.23 0.28 0.38 0.34 0.13 0.04 0.07 0.12 0.18 0.43 0.46 0.41 0.36 0.33 0.32
0.02 0.04 0.10 0.19 0.23 0.25 0.26 0.24 0.22 0.21 0.23 0.23 0.23 0.24 0.25 0.22 0.19 0.16 0.14 0.11 0.09 0.10 0.15 0.21 0.25 0.29 0.33 0.30 0.28 0.37 0.46 0.34 0.11 0.07 0.09 0.12 0.20 0.53 0.70 0.58 0.42 0.35 0.34
0.02 0.04 0.12 0.22 0.25 0.27 0.28 0.28 0.27 0.27 0.28 0.29 0.28 0.28 0.27 0.23 0.21 0.18 0.17 0.14 0.11 0.10 0.10 0.12 0.18 0.24 0.28 0.29 0.31 0.36 0.40 0.23 0.08 0.07 0.09 0.11 0.24 0.61 0.77 0.72 0.56 0.43 0.38
0.03 0.06 0.13 0.22 0.26 0.30 0.31 0.31 0.31 0.31 0.32 0.33 0.32 0.30 0.27 0.23 0.22 0.23 0.21 0.17 0.15 0.14 0.12 0.10 0.10 0.13 0.17 0.21 0.26 0.28 0.26 0.16 0.07 0.12 0.11 0.14 0.26 0.63 0.79 0.79 0.71 0.56 0.43
0.05 0.09 0.15 0.23 0.26 0.30 0.33 0.34 0.33 0.34 0.36 0.37 0.36 0.33 0.27 0.25 0.25 0.23 0.19 0.15 0.16 0.17 0.15 0.13 0.11 0.10 0.09 0.11 0.13 0.15 0.12 0.08 0.05 0.13 0.22 0.21 0.24 0.55 0.78 0.79 0.74 0.67 0.53
0.11 0.13 0.20 0.28 0.31 0.33 0.37 0.37 0.39 0.42 0.44 0.45 0.41 0.36 0.33 0.27 0.23 0.17 0.12 0.12 0.15 0.15 0.14 0.14 0.14 0.11 0.08 0.05 0.04 0.05 0.04 0.02 0.06 0.17 0.23 0.25 0.37 0.68 0.87 0.84 0.81 0.74 0.65
0.10 0.14 0.21 0.30 0.35 0.40 0.41 0.45 0.50 0.49 0.48 0.44 0.37 0.34 0.33 0.27 0.22 0.18 0.14 0.12 0.15 0.15 0.14 0.14 0.14 0.12 0.09 0.07 0.08 0.08 0.03 0.01 0.03 0.07 0.12 0.18 0.40 0.76 0.97 0.96 0.97 0.88 0.76
0.06 0.12 0.20 0.31 0.40 0.44 0.44 0.47 0.49 0.50 0.48 0.46 0.41 0.37 0.34 0.34 0.29 0.25 0.23 0.22 0.19 0.17 0.17 0.18 0.19 0.18 0.20 0.21 0.23 0.20 0.13 0.09 0.05 0.03 0.04 0.09 0.23 0.50 0.82 0.97 1.02 1.02 0.96
0.11 0.14 0.22 0.34 0.43 0.45 0.43 0.43 0.43 0.43 0.42 0.41 0.39 0.39 0.40 0.40 0.37 0.34 0.32 0.33 0.32 0.29 0.27 0.25 0.22 0.21 0.21 0.22 0.24 0.24 0.23 0.22 0.14 0.09 0.05 0.07 0.09 0.17 0.39 0.66 0.89 1.01 1.08
0.14 0.19 0.26 0.35 0.44 0.48 0.48 0.47 0.46 0.41 0.38 0.37 0.36 0.37 0.34 0.29 0.26 0.23 0.22 0.20 0.17 0.17 0.16 0.18 0.18 0.16 0.16 0.16 0.17 0.18 0.21 0.23 0.21 0.17 0.15 0.13 0.10 0.10 0.17 0.32 0.57 0.83 1.04
0.16 0.22 0.31 0.37 0.45 0.51 0.49 0.48 0.46 0.42 0.40 0.40 0.36 0.29 0.27 0.23 0.18 0.15 0.13 0.11 0.08 0.06 0.05 0.05 0.05 0.06 0.07 0.08 0.09 0.11 0.13 0.17 0.19 0.19 0.19 0.21 0.16 0.14 0.15 0.22 0.36 0.59 0.90
0.16 0.24 0.32 0.38 0.49 0.56 0.55 0.54 0.53 0.50 0.46 0.42 0.38 0.32 0.28 0.24 0.19 0.16 0.12 0.10 0.08 0.06 0.04 0.03 0.03 0.02 0.02 0.02 0.03 0.05 0.07 0.09 0.12 0.15 0.18 0.22 0.23 0.20 0.18 0.21 0.28 0.43 0.73
0.17 0.26 0.33 0.40 0.52 0.58 0.61 0.62 0.58 0.56 0.54 0.47 0.41 0.38 0.32 0.26 0.21 0.18 0.15 0.11 0.08 0.07 0.07 0.06 0.04 0.02 0.02 0.02 0.02 0.03 0.06 0.07 0.06 0.09 0.14 0.16 0.19 0.21 0.20 0.21 0.28 0.42 0.61
0.20 0.27 0.35 0.40 0.51 0.59 0.67 0.69 0.67 0.60 0.59 0.55 0.47 0.40 0.36 0.30 0.23 0.19 0.18 0.14 0.11 0.10 0.10 0.09 0.08 0.05 0.03 0.02 0.02 0.02 0.02 0.04 0.05 0.08 0.11 0.14 0.17 0.18 0.20 0.21 0.25 0.34 0.48
0.22 0.29 0.37 0.43 0.55 0.64 0.77 0.85 0.84 0.76 0.67 0.60 0.52 0.43 0.36 0.32 0.27 0.21 0.19 0.17 0.13 0.12 0.11 0.11 0.09 0.06 0.04 0.02 0.02 0.01 0.00 0.01 0.02 0.05 0.07 0.12 0.16 0.17 0.19 0.24 0.27 0.25 0.27
0.28 0.33 0.38 0.46 0.57 0.70 0.78 0.90 0.89 0.83 0.69 0.63 0.55 0.47 0.40 0.34 0.29 0.24 0.19 0.18 0.14 0.13 0.11 0.10 0.10 0.10 0.06 0.03 0.03 0.01 0.00 0.00 0.01 0.02 0.07 0.12 0.17 0.23 0.29 0.34 0.41 0.38 0.30
0.31 0.34 0.36 0.45 0.53 0.65 0.71 0.77 0.87 0.83 0.74 0.65 0.60 0.52 0.43 0.37 0.34 0.28 0.22 0.18 0.15 0.13 0.13 0.11 0.09 0.11 0.09 0.06 0.08 0.12 0.05 0.01 0.00 0.01 0.04 0.09 0.17 0.27 0.39 0.44 0.49 0.50 0.46
0.32 0.35 0.37 0.42 0.48 0.58 0.73 0.84 1.00 1.08 0.97 0.80 0.70 0.60 0.45 0.38 0.35 0.32 0.26 0.22 0.17 0.14 0.14 0.14 0.11 0.11 0.11 0.07 0.08 0.25 0.32 0.17 0.05 0.00 0.01 0.04 0.08 0.12 0.20 0.29 0.36 0.41 0.47
0.24 0.34 0.42 0.42 0.47 0.56 0.71 0.85 0.95 1.07 1.01 0.78 0.63 0.61 0.53 0.42 0.36 0.32 0.30 0.26 0.21 0.16 0.14 0.14 0.13 0.12 0.16 0.16 0.10 0.12 0.22 0.27 0.29 0.13 0.01 0.02 0.02 0.04 0.06 0.10 0.16 0.23 0.34
0.22 0.31 0.43 0.50 0.52 0.56 0.65 0.77 0.87 1.00 1.00 0.90 0.78 0.68 0.60 0.52 0.43 0.34 0.29 0.28 0.25 0.21 0.16 0.14 0.13 0.14 0.17 0.20 0.19 0.15 0.14 0.13 0.19 0.28 0.12 0.02 0.03 0.03 0.04 0.05 0.07 0.10 0.16
0.26 0.32 0.44 0.55 0.56 0.59 0.63 0.71 0.77 0.89 1.03 1.02 0.94 0.83 0.68 0.57 0.48 0.41 0.31 0.28 0.25 0.23 0.21 0.18 0.16 0.15 0.16 0.18 0.20 0.21 0.24 0.26 0.20 0.26 0.22 0.07 0.03 0.03 0.05 0.05 0.06 0.08 0.10